Terug naar catalogus

STARLINK-1433

ActiefCommunicatieVLEO
NORAD 45711·PAYLOAD·🇺🇸 United States

Gelanceerd Jun 4, 2020 vanaf Cape Canaveral Space Force Station

Loading…

Volgende Passages (komende 24 uur)

TLE

VersSource: CelesTrak SupGP

Epoch: Sep 15, 2026, 01:34 UTC

1 45711C 20035BG  26258.06576389  .00256230  00000+0  66108-3 0  2584
2 45711  53.0345 160.9570 0005053 117.4113 226.8589 15.94279057    19

Volg STARLINK-1433 in realtime met AllMySat

Download on the App Store